[[{"header":{"parameterUnit":"m.s-1","parameterCategory":1,"la1":30.2991,"la2":30.254,"lo1":-89.0895,"lo2":-89.0444,"dy":0.0017,"dx":0.0017,"nx":28,"ny":28,"refTime":"2025-07-16T03:00:00:Z","depth":0,"parameterNumber":2,"parameterNumberName":"U-component_of_WINDS"},"data":[0,0,0,0,0,0,0,0,0,0,0,0,0,0,0,0,0,0,0,0,0,0,0,0,0,0,0,0,0,0,0,0,0,0,0,0,0,0,0,0,0,0,0,0,0,0,0,0,0,0,0,0,0,0,0,0,0,0,1.7484,1.7484,0,1.7451,1.7451,1.745,1.7375,1.7373,1.7372,1.737,1.7337,1.7338,1.7338,0,0,0,0,0,0,0,0,0,0,0,0,0,1.7483,1.7483,1.7484,1.7484,1.7483,1.7451,1.7451,1.745,1.7375,1.7373,1.7371,1.7369,1.7337,1.7338,1.7338,0,0,0,0,0,0,0,0,0,0,0,0,0,1.747,1.7484,1.7484,1.7442,1.7438,1.7451,1.7451,1.745,1.7375,1.7373,1.7371,1.7368,1.7337,1.7338,1.7338,1.7391,0,0,1.7341,1.7341,0,0,0,0,0,0,0,0,1.7471,1.747,1.7448,1.7445,1.744,1.7415,1.7438,1.743,1.7376,1.7399,1.737,1.7367,1.7365,1.7363,1.7362,1.7389,1.7388,1.7341,1.7342,1.7342,1.7342,0,0,0,0,0,0,0,1.7472,1.7471,1.7471,1.7448,1.7443,1.7425,1.742,1.7436,1.7396,1.7397,1.7391,1.7388,1.7362,1.7362,1.7361,1.7387,1.7341,1.7342,1.7342,1.7343,1.7458,1.746,0,0,0,0,0,0,1.7479,1.7473,1.7472,1.747,1.745,1.7427,1.7422,1.7425,1.7395,1.7388,1.739,1.7385,1.7361,1.736,1.736,1.742,1.7342,1.7343,1.7343,1.7455,1.7458,1.7461,0,0,0,0,0,0,1.7479,1.748,1.7473,1.747,1.7468,1.7429,1.7434,1.7426,1.7425,1.739,1.7383,1.7397,1.7359,1.7358,1.7384,1.7418,1.7343,1.7344,1.7452,1.7456,1.746,1.7541,0,0,0,0,0,0,1.7479,1.748,1.7499,1.7471,1.7468,1.7498,1.7436,1.7427,1.7427,1.7419,1.7395,1.7388,1.7357,1.7383,1.7385,1.7418,1.7345,1.7449,1.7454,1.7458,1.7536,1.7548,1.7558,0,0,0,0,0,1.748,1.7523,1.7501,1.7501,1.7491,1.75,1.7499,1.7462,1.743,1.7449,1.7427,1.7389,1.7414,1.7386,1.7388,1.7421,1.7447,1.7452,1.7458,1.7531,1.7545,1.7558,0,0,0,0,0,0,1.7557,1.7519,1.7493,1.7529,1.7519,1.7488,1.7511,1.7478,1.7477,1.747,1.7425,1.742,1.7452,1.7439,1.7409,1.7471,1.7424,1.7431,1.7479,1.7493,1.7504,1.7507,1.7346,0,0,0,0,0,1.7578,1.7588,1.7554,1.7589,1.7585,1.7549,1.7552,1.7525,1.7512,1.7507,1.7487,1.7476,1.7482,1.7486,1.7489,1.7533,1.7527,1.7557,1.7568,1.7578,1.7584,1.7608,1.7621,1.748,1.748,1.7479,0,0,1.7622,1.7602,1.7611,1.7604,1.7593,1.7606,1.7546,1.7561,1.757,1.7509,1.7533,1.7518,1.7503,1.7539,1.7553,1.7529,1.7622,1.7585,1.7593,1.7594,1.7615,1.7628,1.764,1.7483,1.7483,1.7482,0,0,1.7708,1.7694,1.7722,1.7712,1.7696,1.7672,1.7679,1.7653,1.7641,1.7663,1.7619,1.7629,1.7639,1.7631,1.7628,1.7713,1.7679,1.7715,1.7774,1.7797,1.7809,1.7818,1.785,1.7862,1.7721,1.7721,1.7721,0,1.7765,1.7781,1.7741,1.7759,1.7758,1.7704,1.7733,1.7725,1.7711,1.7712,1.7684,1.7697,1.7683,1.7717,1.7738,1.7736,1.7744,1.7718,1.781,1.7819,1.7828,1.7858,1.787,1.7726,1.7725,1.7725,1.7724,0,1.7852,1.7865,1.7889,1.7877,1.7879,1.7903,1.7866,1.7873,1.7846,1.7825,1.785,1.7831,1.783,1.7836,1.7809,1.7867,1.7852,1.7818,1.777,1.7847,1.7874,1.7885,1.7732,1.7731,1.7729,1.7728,0,0,1.7986,1.7952,1.7962,1.7957,1.7935,1.7944,1.7966,1.7965,1.7972,1.7964,1.7982,1.7993,1.7962,1.7959,1.7931,1.7952,1.8022,1.7915,1.7914,1.7937,1.8086,1.8113,1.8126,1.7999,1.8001,1.8003,1.8088,0,1.8068,1.8103,1.8068,1.8111,1.8122,1.8071,1.8091,1.808,1.8061,1.8069,1.8048,1.8057,1.8014,1.8012,1.8031,1.801,1.8052,1.8003,1.8016,1.8017,1.8023,1.814,1.8168,1.8249,1.8098,1.81,1.8101,0,1.8169,1.8166,1.821,1.8188,1.8191,1.8209,1.8206,1.8213,1.8201,1.8186,1.8184,1.815,1.8171,1.8123,1.8152,1.812,1.8123,1.8114,1.8116,1.8117,1.8065,1.8146,1.8274,1.8287,1.8117,1.8116,1.8115,0,1.8264,1.8272,1.8299,1.8296,1.8269,1.8284,1.8273,1.8258,1.8261,1.8258,1.826,1.826,1.826,1.8261,1.8229,1.8197,1.8263,1.8212,1.8252,1.8253,1.8268,1.8268,1.8401,1.8269,1.8269,1.8268,1.8268,0,1.836,1.839,1.8342,1.8359,1.8391,1.835,1.8383,1.8367,1.8355,1.8369,1.8324,1.8338,1.8294,1.8304,1.8279,1.8308,1.8308,1.8297,1.829,1.8302,1.8303,1.8304,1.8298,1.8272,1.8271,1.827,1.827,0,1.8472,1.8441,1.8468,1.8441,1.8435,1.846,1.8437,1.8453,1.8431,1.845,1.8452,1.8418,1.8427,1.8395,1.8399,1.8382,1.8425,1.8408,1.8429,1.8425,1.8467,1.8464,1.8606,1.8623,1.8479,1.848,1.8482,0,1.8536,1.8558,1.8534,1.854,1.8532,1.8542,1.8545,1.8506,1.851,1.8498,1.8516,1.8521,1.8524,1.8541,1.8518,1.8521,1.8505,1.8554,1.8505,1.8516,1.8507,1.8507,1.851,1.8565,1.8567,1.8568,1.8569,0,1.8654,1.8638,1.8643,1.8643,1.8647,1.8645,1.864,1.8648,1.8606,1.8614,1.8623,1.8625,1.8629,1.8636,1.8635,1.8624,1.8591,1.8585,1.8594,1.8607,1.8619,1.8615,1.8459,1.8582,1.8581,1.858,1.8579,1.8578,1.8745,1.8762,1.8748,1.8756,1.8748,1.8745,1.8759,1.8739,1.8746,1.8747,1.8723,1.8738,1.8726,1.872,1.8714,1.8725,1.8702,1.8715,1.8719,1.8724,1.8732,1.8617,1.8724,1.8724,1.8723,1.8723,1.8723,0,1.8862,1.885,1.8858,1.8853,1.8859,1.8826,1.8819,1.8827,1.884,1.8832,1.8835,1.8847,1.8853,1.8831,1.8834,1.8848,1.8833,1.885,1.885,1.8848,1.8751,1.8743,1.8863,1.8863,1.8863,1.8863,1.8863,1.8863,1.8923,1.8951,1.8934,1.8958,1.8946,1.896,1.896,1.8957,1.895,1.8965,1.897,1.8955,1.8942,1.8944,1.8949,1.8943,1.8947,1.897,1.8959,1.8868,1.8855,1.8842,1.8834,1.8971,1.8971,1.9055,1.9056,1.9056]},{"header":{"parameterUnit":"m.s-1","parameterCategory":1,"la1":30.2991,"la2":30.254,"lo1":-89.0895,"lo2":-89.0444,"dy":0.0017,"dx":0.0017,"nx":28,"ny":28,"refTime":"2025-07-16T03:00:00:Z","depth":0,"parameterNumber":3,"parameterNumberName":"V-component_of_WINDS"},"data":[0,0,0,0,0,0,0,0,0,0,0,0,0,0,0,0,0,0,0,0,0,0,0,0,0,0,0,0,0,0,0,0,0,0,0,0,0,0,0,0,0,0,0,0,0,0,0,0,0,0,0,0,0,0,0,0,0,0,-3.5007,-3.5009,0,-3.5131,-3.5132,-3.5133,-3.5114,-3.5112,-3.511,-3.5108,-3.5233,-3.5238,-3.5244,0,0,0,0,0,0,0,0,0,0,0,0,0,-3.4755,-3.476,-3.5007,-3.5009,-3.501,-3.513,-3.5132,-3.5134,-3.5114,-3.5112,-3.5109,-3.5107,-3.5231,-3.5238,-3.5244,0,0,0,0,0,0,0,0,0,0,0,0,0,-3.487,-3.4762,-3.5007,-3.5015,-3.5017,-3.513,-3.5132,-3.5134,-3.5115,-3.5112,-3.5109,-3.5106,-3.5229,-3.5237,-3.5245,-3.5357,0,0,-3.5269,-3.5273,0,0,0,0,0,0,0,0,-3.4864,-3.488,-3.5013,-3.5015,-3.5017,-3.5104,-3.5089,-3.5209,-3.5116,-3.5078,-3.5108,-3.5104,-3.5193,-3.5203,-3.5233,-3.5363,-3.5368,-3.527,-3.5275,-3.5278,-3.528,0,0,0,0,0,0,0,-3.4856,-3.4874,-3.5056,-3.5014,-3.5017,-3.5013,-3.5026,-3.5112,-3.5151,-3.5081,-3.508,-3.5095,-3.5193,-3.5226,-3.5236,-3.537,-3.527,-3.5277,-3.5282,-3.5285,-3.5599,-3.5603,0,0,0,0,0,0,-3.4846,-3.4868,-3.5052,-3.506,-3.4931,-3.502,-3.5034,-3.5079,-3.515,-3.5158,-3.5097,-3.5093,-3.5214,-3.5227,-3.524,-3.5378,-3.5278,-3.5285,-3.529,-3.5596,-3.56,-3.5604,0,0,0,0,0,0,-3.484,-3.4862,-3.5047,-3.4964,-3.4987,-3.5028,-3.5078,-3.5083,-3.5116,-3.5163,-3.517,-3.5123,-3.5212,-3.5229,-3.5329,-3.5382,-3.5289,-3.5296,-3.5592,-3.5597,-3.5602,-3.5652,0,0,0,0,0,0,-3.4833,-3.486,-3.4903,-3.4965,-3.4991,-3.5133,-3.5081,-3.5088,-3.513,-3.5126,-3.5189,-3.5196,-3.5211,-3.5317,-3.5337,-3.5391,-3.5302,-3.5587,-3.5594,-3.56,-3.5646,-3.5659,-3.567,0,0,0,0,0,-3.4824,-3.4912,-3.4906,-3.4928,-3.5046,-3.5136,-3.5152,-3.5167,-3.5134,-3.5178,-3.5208,-3.5194,-3.5373,-3.5327,-3.5349,-3.5407,-3.5584,-3.5592,-3.56,-3.5641,-3.5656,-3.5669,0,0,0,0,0,0,-3.4856,-3.492,-3.4914,-3.5024,-3.5075,-3.5133,-3.5189,-3.5182,-3.5243,-3.5237,-3.5252,-3.5267,-3.5368,-3.5397,-3.5345,-3.552,-3.5474,-3.5487,-3.5497,-3.5512,-3.5524,-3.5515,-3.5309,0,0,0,0,0,-3.4875,-3.4944,-3.4996,-3.5089,-3.5115,-3.5147,-3.5187,-3.5195,-3.5248,-3.5269,-3.5307,-3.5359,-3.5427,-3.5471,-3.5536,-3.565,-3.5664,-3.5701,-3.5712,-3.5722,-3.5733,-3.5797,-3.5814,-3.5631,-3.5631,-3.563,0,0,-3.4917,-3.4961,-3.5003,-3.5096,-3.5136,-3.5207,-3.5166,-3.5242,-3.5295,-3.528,-3.5377,-3.5407,-3.5466,-3.5573,-3.5623,-3.5601,-3.5787,-3.5732,-3.5739,-3.5745,-3.5807,-3.5824,-3.584,-3.5636,-3.5635,-3.5634,0,0,-3.5029,-3.5069,-3.5151,-3.5192,-3.5254,-3.5275,-3.5295,-3.5354,-3.5374,-3.5471,-3.5462,-3.5525,-3.5641,-3.5684,-3.5721,-3.5851,-3.5841,-3.5872,-3.5933,-3.5995,-3.601,-3.6023,-3.607,-3.6087,-3.5882,-3.5883,-3.5883,0,-3.5073,-3.5179,-3.5193,-3.5271,-3.5313,-3.5304,-3.5388,-3.5427,-3.5507,-3.5536,-3.551,-3.5657,-3.5696,-3.5814,-3.5846,-3.5876,-3.59,-3.5865,-3.6007,-3.602,-3.6032,-3.6078,-3.6095,-3.5886,-3.5886,-3.5885,-3.5885,0,-3.5231,-3.5305,-3.5363,-3.5442,-3.549,-3.557,-3.5597,-3.5644,-3.5647,-3.5671,-3.5771,-3.5817,-3.5892,-3.5921,-3.5924,-3.604,-3.6025,-3.6003,-3.5957,-3.6053,-3.6096,-3.6113,-3.5891,-3.589,-3.5889,-3.5888,0,0,-3.5366,-3.5452,-3.5473,-3.5509,-3.5577,-3.5635,-3.5714,-3.5788,-3.5829,-3.5884,-3.5953,-3.6052,-3.6032,-3.6074,-3.6083,-3.6137,-3.6239,-3.6109,-3.611,-3.6132,-3.6371,-3.6388,-3.6408,-3.6232,-3.6235,-3.6238,-3.6366,0,-3.5485,-3.5627,-3.5643,-3.577,-3.5839,-3.5832,-3.5902,-3.5951,-3.5976,-3.6039,-3.6066,-3.6136,-3.6105,-3.613,-3.6184,-3.6215,-3.6287,-3.6206,-3.6296,-3.6299,-3.6283,-3.643,-3.6448,-3.6567,-3.6383,-3.6386,-3.6388,0,-3.5644,-3.5705,-3.5839,-3.5898,-3.5928,-3.5991,-3.606,-3.612,-3.6176,-3.619,-3.6238,-3.6239,-3.6323,-3.6273,-3.6388,-3.6333,-3.6371,-3.6392,-3.6397,-3.6406,-3.635,-3.6445,-3.6605,-3.6623,-3.6415,-3.6412,-3.6411,0,-3.5731,-3.5846,-3.5941,-3.5972,-3.6044,-3.6088,-3.612,-3.6173,-3.6217,-3.6278,-3.6307,-3.6376,-3.6414,-3.6468,-3.6489,-3.645,-3.6603,-3.6555,-3.6618,-3.6618,-3.6652,-3.6649,-3.6821,-3.6674,-3.6674,-3.6673,-3.6673,0,-3.5863,-3.5946,-3.5982,-3.604,-3.6133,-3.615,-3.6241,-3.6271,-3.6319,-3.6384,-3.6381,-3.6442,-3.6465,-3.653,-3.6546,-3.664,-3.6656,-3.6671,-3.6675,-3.6672,-3.667,-3.6698,-3.6691,-3.6678,-3.6677,-3.6676,-3.6675,0,-3.5976,-3.6003,-3.6107,-3.6167,-3.6184,-3.625,-3.6301,-3.6358,-3.6382,-3.6464,-3.6484,-3.6523,-3.6599,-3.6624,-3.6716,-3.6727,-3.6837,-3.6833,-3.6819,-3.6819,-3.6882,-3.6876,-3.7078,-3.7106,-3.694,-3.6941,-3.6942,0,-3.6059,-3.6123,-3.619,-3.6233,-3.6267,-3.6337,-3.6382,-3.6401,-3.6448,-3.6518,-3.6567,-3.6643,-3.6705,-3.6827,-3.6863,-3.6933,-3.6932,-3.6998,-3.6942,-3.6938,-3.6934,-3.6931,-3.6938,-3.7008,-3.701,-3.7011,-3.7012,0,-3.6205,-3.6215,-3.628,-3.6351,-3.6405,-3.6461,-3.6516,-3.6551,-3.6579,-3.6632,-3.6711,-3.6758,-3.6853,-3.6929,-3.7001,-3.7034,-3.7029,-3.703,-3.7048,-3.7047,-3.7037,-3.7044,-3.6848,-3.7025,-3.7024,-3.7023,-3.7022,-3.7022,-3.6306,-3.6363,-3.6419,-3.6492,-3.6535,-3.6587,-3.6644,-3.6676,-3.6741,-3.682,-3.6828,-3.6913,-3.6968,-3.7065,-3.7102,-3.7168,-3.715,-3.7177,-3.7184,-3.719,-3.7196,-3.7025,-3.7181,-3.7181,-3.7181,-3.7181,-3.718,0,-3.6453,-3.6489,-3.6556,-3.6633,-3.669,-3.668,-3.674,-3.6789,-3.6864,-3.6917,-3.6978,-3.7069,-3.7142,-3.7184,-3.7258,-3.7304,-3.7303,-3.7323,-3.732,-3.7328,-3.7207,-3.7185,-3.7322,-3.7322,-3.7322,-3.7322,-3.7322,-3.7322,-3.6536,-3.6632,-3.6649,-3.6767,-3.6802,-3.6886,-3.6921,-3.6969,-3.7011,-3.7113,-3.7174,-3.7201,-3.725,-3.7328,-3.7395,-3.7406,-3.7433,-3.7455,-3.7464,-3.7351,-3.7336,-3.7322,-3.7301,-3.7461,-3.7461,-3.7579,-3.758,-3.7581]}]]